Weather History for MMDO - October, 2012

Change the Weather History Date:

Wednesday, October 10, 2012

  Actual Average Record
Temperature  
Mean Temperature 64 °F -  
Max Temperature 87 °F 76 °F 91 °F (2014)
Min Temperature 42 °F 44 °F 41 °F (2010)
Growing Degree Days 14 (Base 50)    
Moisture  
Dew Point 38 °F    
Average Humidity 36    
Maximum Humidity 87    
Minimum Humidity 12    
Precipitation  
Precipitation 0.00 in - - ()
Sea Level Pressure  
Sea Level Pressure 30.03 in    
Wind  
Wind Speed 2 mph ()    
Max Wind Speed 9 mph    
Max Gust Speed -    
Visibility 11.5 miles    
Events      
Averages and records for this station are not official NWS values.
T = Trace of Precipitation, MM = Missing Value Source: Averaged Metar Reports

Daily Weather History Graph

Daily Weather History Graph

Search for Another Location

Airport or City:

Trip Planner

Search our weather history database for the weather conditions in past years. The results will help you decide how hot, cold, wet, or windy it might be!

Date:

Astronomy

Oct. 10, 2012 Rise Set
Actual Time 7:53 AM CDT 7:35 PM CDT
Civil Twilight 7:30 AM CDT 7:58 PM CDT
Nautical Twilight 7:04 AM CDT 8:24 PM CDT
Astronomical Twilight 6:38 AM CDT 8:51 PM CDT
Moon 3:04 AM CDT (10/10) 4:11 PM CDT (10/10)
Length of Visible Light 12h 27m
Length of Day
11h 42m
Waning Crescent, 27% of the Moon is Illuminated
Oct 10
Waning Crescent
Oct 15
New
Oct 21
First Quarter
Oct 29
Full
Nov 6
Last Quarter

Hourly Weather History & Observations

Time (CDT) Temp. Windchill Dew Point Humidity Pressure Visibility Wind Dir Wind Speed Gust Speed Precip Events Conditions
12:55 AM 64 °F - 43 °F 34% 29.76 in 6 mi SW 4.5 mph - -  
3:55 AM 62 °F - 44 °F 40% 29.81 in 6 mi WNW 2.2 mph - -  
6:05 AM 46.4 °F - 39.2 °F 76% 30.26 in 8.0 mi Calm Calm - N/A   Clear
6:48 AM 44.6 °F - 39.2 °F 81% 29.92 in 8.0 mi North 2.3 mph - N/A   Clear
6:55 AM 53 °F - 41 °F 54% 29.91 in 6 mi Calm Calm - -  
7:42 AM 42.8 °F 41.1 °F 39.2 °F 87% 30.28 in 14.0 mi NNW 3.5 mph - N/A   Clear
8:52 AM 50.0 °F - 41.0 °F 71% 30.31 in 12.0 mi North 3.5 mph - N/A   Clear
9:41 AM 57.2 °F - 42.8 °F 59% 29.98 in 12.0 mi Calm Calm - N/A   Clear
9:50 AM 59 °F - 44 °F 46% 30.03 in 19 mi Calm Calm - -  
10:42 AM 66.2 °F - 39.2 °F 37% 30.32 in 12.0 mi Calm Calm - N/A   Clear
11:42 AM 71.6 °F - 37.4 °F 29% 30.32 in 12.0 mi Calm Calm - N/A   Clear
12:45 PM 77.0 °F - 35.6 °F 22% 29.90 in 12.0 mi Calm Calm - N/A   Clear
1:51 PM 78.8 °F - 32.0 °F 18% 30.25 in 14.0 mi East 8.1 mph - N/A   Clear
2:47 PM 80.6 °F - 33.8 °F 18% 30.21 in 14.0 mi SSE 5.8 mph - N/A   Clear
3:40 PM 85 °F - 46 °F 16% 29.80 in 25 mi ESE 2.2 mph - -   Partly Cloudy
3:46 PM 80.6 °F - 32.0 °F 17% 29.83 in 14.0 mi East 6.9 mph - N/A   Clear
4:47 PM 82.4 °F - 32.0 °F 16% 30.16 in 14.0 mi South 9.2 mph - N/A   Partly Cloudy
5:40 PM 82.4 °F - 30.2 °F 15% 30.15 in 14.0 mi East 5.8 mph - N/A   Partly Cloudy
6:40 PM 83 °F - 38 °F 12% 29.68 in 25 mi ESE 2.2 mph - -   Partly Cloudy
6:46 PM 80.6 °F - 26.6 °F 14% 29.78 in 14.0 mi Calm Calm - N/A   Clear
7:46 PM 73.4 °F - 33.8 °F 23% 30.15 in 14.0 mi Calm Calm - N/A   Clear
8:44 PM 68.0 °F - 35.6 °F 30% 30.16 in 10.0 mi Calm Calm - N/A   Clear
9:40 PM 67 °F - 38 °F 24% 29.67 in 6 mi Calm Calm - -   Scattered Clouds